This is the latest recevied weather packets stored in our database for station/object S54A-11. If no packets are shown the sender has not sent any weather packets the latest 10 day(s).
| Time | Temp. | Humidity | Pressure | Rain* | Wind** | Luminosity | Snow |
|---|---|---|---|---|---|---|---|
| 1777654729 | 21.11° C | 34% | 1024.3 hPa | - | - | - | - |
| 1777653829 | 21.67° C | 32% | 1024.2 hPa | - | - | - | - |
| 1777652929 | 21.67° C | 33% | 1024.4 hPa | - | - | - | - |
| 1777652029 | 23.33° C | 33% | 1024.4 hPa | - | - | - | - |
| 1777651128 | 24.44° C | 33% | 1024.4 hPa | - | - | - | - |
| 1777650228 | 23.89° C | 30% | 1024.5 hPa | - | - | - | - |
| 1777649328 | 23.89° C | 28% | 1024.5 hPa | - | - | - | - |
| 1777648428 | 24.44° C | 32% | 1024.6 hPa | - | - | - | - |
| 1777647528 | 24.44° C | 28% | 1024.8 hPa | - | - | - | - |
| 1777646628 | 25° C | 30% | 1024.9 hPa | - | - | - | - |
| 1777645728 | 24.44° C | 31% | 1025 hPa | - | - | - | - |
| 1777644828 | 24.44° C | 30% | 1024.9 hPa | - | - | - | - |
| 1777643928 | 25° C | 27% | 1025.1 hPa | - | - | - | - |
| 1777643028 | 24.44° C | 27% | 1025.3 hPa | - | - | - | - |
| 1777642128 | 24.44° C | 30% | 1025.6 hPa | - | - | - | - |
| 1777641227 | 23.33° C | 29% | 1025.7 hPa | - | - | - | - |
| 1777640327 | 22.78° C | 24% | 1026 hPa | - | - | - | - |
| 1777639427 | 22.78° C | 27% | 1026 hPa | - | - | - | - |
| 1777638527 | 22.78° C | 31% | 1026.2 hPa | - | - | - | - |
| 1777637627 | 25.56° C | 28% | 1026.2 hPa | - | - | - | - |
| 1777636727 | 26.11° C | 28% | 1026.5 hPa | - | - | - | - |
| 1777635827 | 25.56° C | 29% | 1026.6 hPa | - | - | - | - |
| 1777634927 | 25.56° C | 28% | 1026.8 hPa | - | - | - | - |
| 1777634027 | 24.44° C | 30% | 1027.1 hPa | - | - | - | - |
| 1777633127 | 24.44° C | 31% | 1027.2 hPa | - | - | - | - |
* Rain since midnight (hover to see other rain measurements)
** Current wind speed in m/s (hover to see current wind gust speed)